Tracking 19795 objects as of 17-Jul-2019
HD Live streaming from Space Station
objects crossing your sky now

FENGYUN 1C DEB

Track FENGYUN 1C DEB now!
10-day predictions


NORAD ID: 35243
Int'l Code: 1999-025DRB
Perigee: 649.0 km
Apogee: 826.7 km
Inclination: 98.9 °
Period: 99.4 minutes
Semi major axis: 7108 km
RCS: 0.0017 m2 (small)
Launch date: May 10, 1999
Source: People's Republic of China (PRC)
Launch site: Taiyaun Space Center, China (TSC)

Note: This is SATELLITE DEBRIS
aabbcc
Your satellite tracking list
Your tracking list is empty




NASA's NSSDC Master Catalog

Two Line Element Set (TLE):
1 35243U 99025DRB 19196.90884543  .00000471  00000-0  12736-3 0  9993
2 35243  98.9004  80.6014 0124991 192.7048 167.0985 14.48457794568801
Source of the keplerian elements: AFSPC